Regional Weather Roundup
Issued by NWS Glasgow, MT

Home | Current Version | Previous Version | Text Only | Print | Product List | Glossary On
Versions: 1 2 3 4 5 6 7 8 9 10 11 12 13 14 15 16 17 18 19 20 21 22 23 24 25 26 27 28 29 30 31 32 33 34 35 36 37 38 39 40 41 42 43 44 45 46 47 48 49 50
000
ASUS45 KGGW 231715
RWRGGW
HOURLY REGIONAL WEATHER ROUNDUP FOR NORTHEAST MONTANA
NATIONAL WEATHER SERVICE GLASGOW MONTANA
1000 AM MST THU FEB 23 2017

NOTE: "FAIR" INDICATES FEW OR NO CLOUDS BELOW 12,000 FEET WITH NO
SIGNIFICANT WEATHER AND/OR OBSTRUCTIONS TO VISISBILITY.

NORTHEAST MONTANA


CITY           SKY/WX    TMP DP  RH WIND       PRES   REMARKS
GLASGOW        SUNNY     29  24  82 NE16      30.04R
PLENTYWOOD       N/A     23  20  88 NE16        N/A
WOLF POINT     CLOUDY    30  24  78 E16       30.07R
JORDAN           N/A     28  25  88 N9        30.00F
WINNETT          N/A     29  25  85 NE7         N/A
SIDNEY         CLOUDY    29  26  89 N9        30.06R
GLENDIVE       CLOUDY    26  25  96 N6        30.02S FOG
MALTA            N/A     29  27  92 NE8         N/A
SCOBEY           N/A     25  15  66 NE12      30.04R

FORT PECK REPORTS


CITY           SKY/WX    TMP DP  RH WIND       PRES   REMARKS
FORT PECK        N/A     29  29 100 S3          N/A
THE PINES        N/A     26  25  96 CALM        N/A

SOUTHEAST MONTANA


CITY           SKY/WX    TMP DP  RH WIND       PRES   REMARKS
BILLINGS       CLOUDY    27  21  78 NE15      29.91S
MILES CITY     CLOUDY    31  25  78 NE12      29.98R
BAKER          CLOUDY    28  24  85 E15       29.96S
LIVINGSTON     LGT SNOW  26  22  84 E14       29.83S FOG

CENTRAL MONTANA


CITY           SKY/WX    TMP DP  RH WIND       PRES   REMARKS
HAVRE          LGT SNOW  24  21  88 NE15      30.06R FOG
LEWISTOWN      CLOUDY    24  19  81 NE7       29.93F
GREAT FALLS    CLOUDY    25  22  88 NE12      29.98R
CUT BANK       LGT SNOW  20  16  84 NE8       30.01S FOG
HELENA         CLOUDY    31  22  69 N12       29.91S
BUTTE          CLOUDY    24  18  77 S3        29.81S
BOZEMAN        CLOUDY    32  20  61 S3        29.83S

WESTERN MONTANA


CITY           SKY/WX    TMP DP  RH WIND       PRES   REMARKS
MISSOULA       CLOUDY    31  26  82 NW8       29.95S
KALISPELL      NOT AVBL

NORTH DAKOTA


CITY           SKY/WX    TMP DP  RH WIND       PRES   REMARKS
WILLISTON      CLOUDY    26  23  88 N14       30.08R
DICKINSON      LGT SNOW  28  26  92 NE8       29.96F FOG
MINOT          CLOUDY    23  17  78 N13       30.09R
BISMARCK       CLOUDY    31  24  75 E8        30.03S

SOUTHERN SASKATCHEWAN


CITY           SKY/WX    TMP DP  RH WIND       PRES   REMARKS
REGINA         PTSUNNY   27  16  63 W9        30.09F
MOOSE JAW      PTSUNNY   28  16  59 W7        30.12S
ESTEVAN        PTSUNNY   23  18  80 N3        30.09S
SWIFT CURRENT  FLURRIES  21  16  79 W6        30.08S




USA.gov is the U.S. government's official web portal to all federal, state and local government web resources and services.